Weather in Zaluch'ye

Russia / Tver Oblast     57°12′01″N   33°08′44″E
temp.,
°C
wind,
m/s
gust,
m/s
humid.,
%
clouds,
%
prec.,
mm/h
press.,
hPa
HPBL,
m
26 october, tue
tue2600:00+1sw41388100 0.0 1022482
03:00+1sw41289100 0.0 1021408
06:00+1sw41387100 0.0 1020420
09:00+1sw41383100 0.0 1019471
12:00+4sw41273100 0.0 1017527
15:00+5sw41173100 0.0 1016599
18:00+3sw41179100 0.0 1016479
21:00+3sw41281100 0.0 1015468
27 october, wed
wed2700:00+2sw41283100 0.0 1014432
03:00+2ssw41286100 0.0 1012443
06:00+3ssw51385100 0.0 1010475
09:00+3sw41292100 0.6 1009574
12:00+5wsw41295100 0.7 1009760
15:00+6w51183100 0.8 10101164
18:00+6w51187100 0.1 1012825
21:00+6wsw41185100 0.1 1012559
28 october, thu
thu2800:00+5sw41192100 0.0 1011472
03:00+5ssw41196100 0.3 1009442
06:00+6sw51496100 1.4 1006782
09:00+9w51295100 2.4 1007771
12:00+9wnw6118464 0.3 1009942
15:00+8wnw51179100 0.3 10121278
18:00+7nw51181100 0.1 10161056
21:00+6nnw3792100 0.1 1019582
29 october, fri
fri2900:00+5ene2393100 0.0 1021406
03:00+5ese1393100 0.0 1023227
06:00+5sse3693100 0.2 1024323
09:00+5sse4993100 0.6 1025436
12:00+6s51189100 0.1 1025529
15:00+8ssw41089100 0.1 1024421
18:00+9sw498888 0.0 1024503
21:00+7ssw3119558 0.0 1025295
30 october, sat
sat3000:00+7ssw3129466 0.0 1025337
03:00+8ssw4139566 0.0 1025427
06:00+8ssw41494100 0.0 1024468
09:00+8ssw5149594 0.0 1024482
12:00+11ssw51482100 0.0 1023587
15:00+12ssw5147993 0.0 1022763
18:00+10ssw5158552 0.0 1021680
21:00+9ssw5158516 0.0 1022638